Location: Unspecified
(40.7945°N, 111.1337°W)
Time: 05:41:35
(UTC-06:00)

Altair - Pass Details

Date: 26 June 2019
Orbit: 1501 x 1683 km, 47.2° (Epoch: 22 July)

Event Time Altitude Azimuth Distance (km) Brightness Sun altitude
Rises 03:21:52 0° 297° (WNW) 4,854 10.1 -20.5°
Reaches altitude 10° 03:25:14 10° 290° (WNW) 3,887 9.5 -20.2°
Maximum altitude 03:34:09 39° 227° (SW) 2,338 7.9 -19.4°
Drops below altitude 10° 03:43:12 10° 163° (SSE) 3,932 9.3 -18.5°
Sets 03:46:39 0° 156° (SSE) 4,915 9.8 -18.1°
